User: anonymous   Login
Location: Poughquag
(41.6090°N, 73.6820°W)
Time: 12:26:38
(UTC-04:00)
Language:

Hubble Space Telescope - Orbit

View from above orbital plane
View from above orbital plane
View from above satellite
View from above satellite

Ground track
Ground track

The orbit data is extracted from the following two-line orbital elements,

1 20580U 90037B   20292.55458110  .00000505  00000-0  19722-4 0  9993
2 20580  28.4692 225.4300 0002548 341.4885 182.0068 15.09451628474670
Epoch (UTC): 18 October 2020 13:18:35
Eccentricity: 0.0002548
inclination: 28.4692°
perigee height: 536 km
apogee height: 539 km
right ascension of ascending node: 225.4300°
argument of perigee: 341.4885°
revolutions per day: 15.09451628
mean anomaly at epoch: 182.0068°
orbit number at epoch: 47467

The dashed part of the orbit path shows where the satellite is in the earth's shadow,  

DLR